Погода в Пуно

Перу     15°50′02″S   70°01′38″W
В апреле 2022 года жителям России запретили посещать сайт meteo.paraplan.net по решению Генеральной прокуратуры. Аудитория сайта уменьшилась в 10 раз. Владельцы сайта не видят смысла в поддержке погодного сервера в таких условиях. Сайт будет закрыт в октябре.
темп.,
°C
ветер,
м/с
пор.,
м/с
влажн.,
%
обл.,
%
осадки,
мм/ч
давл.,
гПа
погр.,
м
4 октября, вт
вт401:00+8сз236999 0.3 1016176
04:00+7з225793 0.0 1016157
07:00+8з113949 0.0 1018373
10:00+11св33345 0.0 10161401
13:00+12всв65369 0.0 10101493
16:00+12в884261 0.0 1007510
19:00+12юв4642100 0.0 1010439
22:00+9в344293 0.1 1015348
5 октября, ср
ср501:00+7юз224741 0.1 1014240
04:00+6зюз333954 0.0 1015146
07:00+7зюз233068 0.0 1017344
10:00+12ссз242157 0.0 10141409
13:00+13св4727100 0.0 10082227
16:00+14в343018 0.0 10041062
19:00+11ююз5627100 0.0 1011220
22:00+8з2227100 0.0 1016175
6 октября, чт
чт601:00+6зюз223385 0.0 1016160
04:00+4зюз2233100 0.0 1018123
07:00+6зюз1123100 0.0 1020260
10:00+9св4225100 0.0 10181072
13:00+10всв642693 0.0 10141016
16:00+12всв67255 0.0 1009481
19:00+10юв462917 0.0 1014120
22:00+8ююз461982 0.0 1017160
7 октября, пт
пт701:00+6ю112099 0.0 1017153
04:00+5ююв23270 0.0 1017242
07:00+8юз11250 0.0 1019381
10:00+11всв53270 0.0 10171148
13:00+11всв54290 0.0 10131029
16:00+12в77291 0.0 1007419
19:00+10вюв464281 0.0 1010152
22:00+9ююв233199 0.0 1015139
8 октября, сб
сб801:00+6юз112797 0.0 101478
04:00+5юз112439 0.0 101675
07:00+8з11180 0.0 1018252
10:00+11св22270 0.0 1015988
13:00+11всв54270 0.0 10111322
16:00+13всв66280 0.0 1006314
19:00+10вюв46380 0.0 1010109
22:00+8ю12315 0.0 1015113